sat.trackr.live / text

‹ back to catalog

STARLINK-3056

NORAD 49159 · 2021-082AF

PAYLOAD ACTIVE UNKNOWN

§ Identity

Operator
Country
US
Launch date
2021-09-14
Launch site
AFWTR
Launch vehicle
Mass (kg)
RCS (m²)

Purposes: comms

External: N2YO · Heavens-Above · Gunter

§ Orbital elements

Epoch: 2026-09-19T03:49:25.268736Z

Period
96.11 min
Inclination
70.0000°
Eccentricity
0.0002958
Mean motion
14.98328627 rev/d
Perigee alt
570.0 km
Apogee alt
574.1 km
Semi-major
6,950.2 km
B*
3.7391e-6
RAAN
166.6507°
Arg perigee
268.9337°
Mean anomaly
91.1483°
Rev number
27,605

§ Raw data

STARLINK-30561 49159U 21082AF  26262.15932024 -.00000048  00000+0  37391-5 0  99952 49159  70.0000 166.6507 0002958 268.9337  91.1483 14.98328627276056

JSON: /api/v1/satellites/49159 · /tle

For live sub-satellite position, see the globe view (requires WebGL).

§ Visibility from observer

Set your observer location to see the next 7 days of passes ≥ 10°. The values pass through the URL so the page stays shareable.

No JS? Fill the form by hand. The geolocation button needs JavaScript.